Location: *
(51.2167°N, 10.0667°E)
Time: 00:59:50
(UTC+00:00)

Meteor 1-11 Rocket - Pass Details

Date: 12 December 2019
Orbit: 831 x 916 km, 81.2° (Epoch: 20 January)

Event Time Altitude Azimuth Distance (km) Brightness Sun altitude
Rises 15:55:47 0° 348° (NNW) 3,565 6.8 -6.6°
Reaches altitude 10° 15:58:17 10° 350° (N) 2,621 6.1 -6.9°
Maximum altitude 16:04:17 72° 75° (ENE) 963 3.9 -7.7°
Drops below altitude 10° 16:10:12 10° 160° (SSE) 2,588 6.3 -8.6°
Sets 16:12:39 0° 163° (SSE) 3,517 7.0 -8.9°
